Location: Hylvaty SDH
(49.9612°N, 16.4057°E)
Time: 19:30:40
(UTC+01:00)

Vanguard 1 Rocket - Pass Details

Date: 03 October 2020
Orbit: 656 x 4221 km, 34.3° (Epoch: 30 October)

Event Time Altitude Azimuth Distance (km) Brightness Sun altitude
Rises 01:38:10 0° 275° (W) 7,691 12.0 -42.7°
Enters shadow 01:47:13 - 256° (WSW) 7,230 11.7 -42.2°
Reaches altitude 10° 01:48:16 10° 253° (WSW) 7,200 - -42.1°
Maximum altitude 01:57:02 13° 232° (SW) 7,128 - -41.5°
Drops below altitude 10° 02:06:05 10° 211° (SSW) 7,362 - -40.9°
Sets 02:17:08 0° 189° (S) 7,988 - -40.0°
